Date,TemperatureHighF,TemperatureAvgF,TemperatureLowF,DewpointHighF,DewpointAvgF,DewpointLowF,HumidityHigh,HumidityAvg,HumidityLow,PressureMaxIn,PressureMinIn,WindSpeedMaxMPH,WindSpeedAvgMPH,GustSpeedMaxMPH,PrecipitationSumIn
2014-3-1,10.1,4.4,-2.3,6.0,-0.7,-7.0,85,79,71,30.59,30.18,16,9,20,0.00
2014-3-2,13.4,3.8,-3.1,7.0,-1.0,-8.0,86,80,74,30.66,30.46,15,9,19,0.00
2014-3-3,51.9,22.6,2.3,30.0,14.9,-1.0,87,74,44,30.46,30.10,7,2,8,0.01
2014-3-4,53.9,38.6,25.9,37.0,30.8,23.0,91,75,48,30.12,29.90,16,4,21,0.00
2014-3-5,56.1,39.8,25.1,38.0,29.2,24.0,95,70,34,30.17,29.98,16,4,28,0.00
2014-3-6,65.0,51.0,31.7,35.0,29.5,23.0,81,47,26,29.98,29.65,16,5,27,0.00
2014-3-7,46.1,38.7,31.7,37.0,34.7,30.0,94,86,67,30.23,29.75,8,2,11,0.18
2014-3-8,56.5,42.8,29.6,36.0,30.7,27.0,96,67,33,30.36,30.13,16,5,20,0.01
2014-3-9,68.6,56.3,40.2,31.0,24.7,18.0,51,31,16,30.13,29.85,36,12,44,0.00
2014-3-10,69.5,55.8,43.2,34.0,27.4,18.0,62,36,14,29.87,29.49,19,6,28,0.00
2014-3-11,50.0,36.2,27.6,38.0,29.5,21.0,92,77,51,30.38,29.52,28,9,32,0.00
2014-3-12,52.7,36.9,24.2,25.0,19.9,16.0,81,55,25,30.41,30.18,23,8,27,0.00
2014-3-13,63.6,44.8,23.1,28.0,21.8,12.0,90,49,14,30.18,29.73,31,7,38,0.00
2014-3-14,63.9,47.2,28.8,30.0,21.2,11.0,80,43,13,30.02,29.78,22,6,28,0.00
2014-3-15,52.2,40.2,30.8,34.0,28.7,18.0,88,66,26,30.35,29.75,30,12,37,0.01
2014-3-16,63.8,43.3,22.6,32.0,25.3,19.0,95,58,18,30.38,29.89,18,5,28,0.00
2014-3-17,70.5,49.5,37.5,34.0,26.7,18.0,67,46,15,29.88,29.21,26,9,51,0.00
2014-3-18,41.5,34.8,28.7,32.0,26.2,19.0,95,72,41,30.15,29.38,32,13,42,0.00
2014-3-19,51.5,36.1,20.5,27.0,20.3,15.0,90,59,25,30.21,30.02,20,6,26,0.00
2014-3-20,61.8,48.5,30.4,29.0,18.4,12.0,77,35,15,30.01,29.72,24,9,36,0.00
2014-3-21,46.6,35.8,26.6,23.0,20.3,16.0,75,56,32,30.31,29.93,24,9,34,0.00
2014-3-22,29.2,23.5,19.0,23.0,19.0,14.0,91,83,72,30.59,30.27,14,7,18,0.00
2014-3-23,50.4,34.6,15.0,36.0,25.4,12.0,89,70,49,30.56,30.09,17,6,20,0.03
2014-3-24,42.8,35.1,29.3,28.0,24.1,19.0,86,66,41,30.42,30.25,14,6,22,0.00
2014-3-25,62.9,40.3,22.6,32.0,24.9,16.0,83,57,30,30.42,29.73,15,6,20,0.00
2014-3-26,71.1,47.9,25.8,38.0,27.4,19.0,88,54,14,29.72,29.27,22,6,40,0.00
2014-3-27,48.7,38.6,31.4,37.0,31.0,28.0,93,75,52,29.85,29.38,11,4,14,0.10
2014-3-28,53.5,43.2,32.4,33.0,26.0,22.0,87,53,32,30.15,29.82,24,8,32,0.00
2014-3-29,70.0,53.1,27.9,26.0,21.7,17.0,86,36,15,30.14,29.78,29,9,36,0.00
2014-3-30,73.3,56.6,38.4,38.0,26.1,18.0,61,35,12,29.78,29.27,27,5,40,0.00
2014-3-31,48.2,38.1,28.3,41.0,26.6,21.0,88,65,45,30.05,29.35,41,18,52,0.00